Location: Ferintosh
(52.7647°N, 112.9692°W)
Time: 12:58:36
(UTC+00:00)

Transit 2A - Pass Details

Date: 18 May 2024
Orbit: 593 x 959 km, 66.7° (Epoch: 14 June)

Event Time Altitude Azimuth Distance (km) Brightness Sun altitude
Rises 15:44:34 0° 318° (NW) 3,348 8.9 36.0°
Reaches altitude 10° 15:46:57 10° 315° (NW) 2,465 8.3 36.4°
Maximum altitude 15:52:35 58° 238° (WSW) 1,034 7.0 37.2°
Drops below altitude 10° 15:58:39 10° 161° (SSE) 2,644 9.4 38.1°
Sets 16:01:17 0° 157° (SSE) 3,608 10.0 38.4°
